Location: Bieujac
(44.5398°N, 0.1549°W)
Time: 17:52:58
(UTC+00:00)

Cosmos 372 Rocket - Pass Details

Date: 17 November 2019
Orbit: 739 x 767 km, 74.1° (Epoch: 14 December)

Event Time Altitude Azimuth Distance (km) Brightness Sun altitude
Rises 06:09:42 0° 217° (SW) 3,194 7.0 -9.0°
Reaches altitude 10° 06:12:09 10° 224° (SW) 2,269 6.2 -8.6°
Maximum altitude 06:17:04 44° 297° (WNW) 1,029 4.3 -7.8°
Drops below altitude 10° 06:21:58 10° 9° (N) 2,267 6.3 -6.9°
Sets 06:24:26 0° 16° (NNE) 3,192 7.2 -6.5°
